Tracking 29892 objects as of 21-Nov-2024
HD Live streaming from Space Station
objects crossing your sky now

GEESAT 3-03

Track GEESAT 3-03 now!
10-day predictions


NORAD ID: 61013
Int'l Code: 2024-159C
Perigee: 587.2 km
Apogee: 601.9 km
Inclination: 50.0 °
Period: 96.4 minutes
Semi major axis: 6965 km
RCS: Unknown
Launch date: September 5, 2024
Source: People's Republic of China (PRC)
Launch site: Taiyaun Space Center, China (TSC)
Your satellite tracking list
Your tracking list is empty




NASA's NSSDC Master Catalog

Two Line Element Set (TLE):
1 61013U 24159C   24326.16173702  .00010065  00000-0  96944-3 0  9993
2 61013  49.9928 239.4858 0010531 275.9606  84.0136 14.93371869 12161
Source of the keplerian elements: AFSPC